Location: Grand Rapids
(42.9630°N, 85.6680°W)
Time: 02:20:00
(UTC-04:00)

Vanguard 3 - All Passes

Search period start: 30 May 2024 00:00
Search period end: 09 June 2024 00:00
Orbit: 509 x 3232 km, 33.3° (Epoch: 29 May)

Date Brightness Start Highest point End Pass type
(mag) Time Alt. Az. Time Alt. Az. Time Alt. Az.
30 May - 01:38:38 10° WSW 01:46:19 16° SW 01:55:23 10° S visible
30 May - 17:46:29 10° SSW 17:50:37 24° SSE 17:56:38 10° ESE daylight
30 May - 19:55:15 10° WSW 20:01:27 44° S 20:12:05 10° ESE daylight
30 May - 22:05:33 10° WSW 22:13:46 40° SSW 22:27:10 10° SE visible
31 May - 00:18:05 10° WSW 00:27:01 23° SSW 00:39:01 10° SSE visible
31 May - 16:32:03 10° SSE 16:33:42 12° SE 16:35:32 10° ESE daylight
31 May - 18:38:47 10° SW 18:43:42 35° SSE 18:51:38 10° ESE daylight
31 May - 20:48:23 10° WSW 20:55:12 43° S 21:06:47 10° ESE daylight
31 May - 22:59:30 10° WSW 23:07:53 30° SSW 23:20:28 10° SSE visible
01 Jun - 01:15:50 10° WSW 01:21:13 13° SW 01:27:22 10° SSW visible
01 Jun - 17:22:46 10° SSW 17:26:27 23° SSE 17:31:32 10° ESE daylight
01 Jun - 19:31:36 10° WSW 19:37:07 40° S 19:46:22 10° ESE daylight
01 Jun - 21:41:50 10° WSW 21:49:06 35° SSW 22:00:51 10° SE visible
01 Jun - 23:54:34 10° WSW 00:02:03 20° SSW 00:11:56 10° S visible
02 Jun - 16:08:20 10° SSE 16:09:29 11° SSE 16:10:42 10° SE daylight
02 Jun - 18:15:06 10° SW 18:19:30 33° SSE 18:26:18 10° ESE daylight
02 Jun - 20:24:43 10° WSW 20:30:45 38° S 20:40:48 10° SE daylight
02 Jun - 22:35:52 10° WSW 22:43:08 26° SSW 22:53:48 10° SSE visible
03 Jun - 16:59:01 10° SSW 17:02:18 21° SSE 17:06:35 10° ESE daylight
03 Jun - 19:07:56 10° WSW 19:12:51 36° S 19:20:47 10° ESE daylight
03 Jun - 21:18:11 10° WSW 21:24:33 30° SSW 21:34:34 10° SE daylight
03 Jun - 23:31:25 10° WSW 23:37:13 16° SSW 23:44:33 10° S visible
04 Jun - 15:44:28 10° SSE 15:45:16 10° SSE 15:46:07 10° SE daylight
04 Jun - 17:51:25 10° SW 17:55:21 30° SSE 18:01:07 10° ESE daylight
04 Jun - 20:01:05 10° WSW 20:06:24 33° S 20:14:56 10° SE daylight
04 Jun - 22:12:24 10° WSW 22:18:29 21° SSW 22:27:04 10° SSE visible
05 Jun - 16:35:12 10° SSW 16:38:09 20° SSE 16:41:49 10° ESE daylight
05 Jun - 18:44:16 10° WSW 18:48:39 32° S 18:55:20 10° ESE daylight
05 Jun - 20:54:39 10° WSW 21:00:06 25° SSW 21:08:20 10° SE daylight
05 Jun - 23:09:06 10° SW 23:12:30 12° SSW 23:16:26 10° S visible
06 Jun - 15:20:13 10° SSE 15:21:04 11° SSE 15:21:56 10° SE daylight
06 Jun - 17:27:41 10° SW 17:31:14 27° S 17:36:05 10° ESE daylight
06 Jun - 19:37:29 10° WSW 19:42:07 28° S 19:49:09 10° SE daylight
06 Jun - 21:49:12 10° WSW 21:53:56 17° SSW 22:00:11 10° SSE visible
07 Jun - 16:11:18 10° SSW 16:14:02 19° SSE 16:17:12 10° ESE daylight
07 Jun - 18:20:37 10° WSW 18:24:28 28° S 18:30:01 10° SE daylight
07 Jun - 20:31:12 10° WSW 20:35:44 20° SSW 20:42:06 10° SSE daylight
08 Jun - 14:55:38 10° S 14:56:51 11° SSE 14:58:05 10° SE daylight
08 Jun - 17:03:54 10° SW 17:07:06 24° S 17:11:12 10° ESE daylight
08 Jun - 19:13:55 10° WSW 19:17:51 23° S 19:23:29 10° SE daylight
08 Jun - 21:26:35 10° SW 21:29:28 12° SSW 21:32:53 10° S daylight
